SCP
0 0 0 0 0 0 0 0 0 0 0 0 0 0 0 0 0 0 0 0 0 0 0 0 0 0 0 0 0 0 0 0 0 0 0 0 0 0 0 0 0 0 0
0 0 0 0 0 0 0 0 0 0 0 0 0 0 0 0 0 0 0 0 0 0 0 0 0 0 0 0 0 0 0 0 0 0 0 0 0 0 0 0 0 0 0
0 0 0 0 0 0 0 0 0 0 0 0 0 0 0 0 0 0 0 0 0 0 0 0 0 0 0 0 0 0 0 0 0 0 0 0 0 0 0 0 0 0 0
0 0 0 0 0 0 0 0 0 0 0 0 0 0 0 0 0 0 0 0 0 0 0 0 0 0 0 0 0 0 0 0 0 0 0 0 0 0 0 0 0 0 0
0 0 0 0 0 0 0 0 0 0 0 0 0 0 0 0 0 0 0 0 0 0 0 0 0 0 0 0 0 0 0 0 0 0 0 0 0 0 0 0 0 0 0
0 0 0 0 0 0 0 0 0 0 0 0 0 0 0 0 0 0 0 0 0 0 0 0 0 0 0 0 0 0 0 0 0 0 0 0 0 0 0 0 0 0 0
0 0 0 0 0 0 0 0 0 0 0 0 0 0 0 0 0 0 0 0 0 0 0 0 0 0 0 0 0 0 0 0 0 0 0 0 0 0 0 0 0 0 0
0 0 0 0 0 0 0 0 0 0 0 0 0 0 0 0 0 0 0 0 0 0 0 0 0 0 0 0 0 0 0 0 0 0 0 0 0 0 0 0 0 0 0
0 0 0 0 0 0 0 0 0 0 0 0 0 0 0 0 0 0 0 0 0 0 0 0 0 0 0 0 0 0 0 0 0 0 0 0 0 0 0 0 0 0 0
0 0 0 0 0 0 0 0 0 0 0 0 0 0 0 0 0 0 0 0 0 0 0 0 0 0 0 0 0 0 0 0 0 0 0 0 0 0 0 0 0 0 0
0 0 0 0 0 0 0 0 0 0 0 0 0 0 0 0 0 0 0 0 0 0 0 0 0 0 0 0 0 0 0 0 0 0 0 0 0 0 0 0 0 0 0
0 0 0 0 0 0 0 0 0 0 0 0 0 0 0 0 0 0 0 0 0 0 0 0 0 0 0 0 0 0 0 0 0 0 0 0 0 0 0 0 0 0 0
0 0 0 0 0 0 0 0 0 0 0 0 0 0 0 0 0 0 0 0 0 0 0 0 0 0 0 0 0 0 0 0 0 0 0 0 0 0 0 0 0 0 0
0 0 0 0 0 0 0 0 0 0 0 0 0 0 0 0 0 0 0 0 0 0 0 0 0 0 0 0 0 0 0 0 0 0 0 0 0 0 0 0 0 0 0
0 0 0 0 0 0 0 0 0 0 0 0 0 0 0 0 0 0 0 0 0 0 0 0 0 0 0 0 0 0 0 0 0 0 0 0 0 0 0 0 0 0 0
0 0 0 0 0 0 0 0 0 0 0 0 0 0 0 0 0 0 0 0 0 0 0 0 0 0 0 0 0 0 0 0 0 0 0 0 0 0 0 0 0 0 0
0 0 0 0 0 0 0 0 0 0 0 0 0 0 0 0 0 0 0 0 0 0 0 0 0 0 0 0 0 0 0 0 0 0 0 0 0 0 0 0 0 0 0
0 0 0 0 0 0 0 0 0 0 0 0 0 0 0 0 0 0 0 0 0 0 0 0 0 0 0 0 0 0 0 0 0 0 0 0 0 0 0 0 0 0 0
0 0 0 0 0 0 0 0 0 0 0 0 0 0 0 0 0 0 0 0 0 0 0 0 0 0 0 0 0 0 0 0 0 0 0 0 0 0 0 0 0 0 0
0 0 0 0 0 0 0 0 0 0 0 0 0 0 0 0 0 0 0 0 0 0 0 0 0 0 0 0 0 0 0 0 0 0 0 0 0 0 0 0 0 0 0
0 0 0 0 0 0 0 0 0 0 0 0 0 0 0 0 0 0 0 0 0 0 0 0 0 0 0 0 0 0 0 0 0 0 0 0 0 0 0 0 0 0 0
0 0 0 0 0 0 0 0 0 0 0 0 0 0 0 0 0 0 0 0 0 0 0 0 0 0 0 0 0 0 0 0 0 0 0 0 0 0 0 0 0 0 0
0 0 0 0 0 0 0 0 0 0 0 0 0 0 0 0 0 0 0 0 0 0 0 0 0 0 0 0 0 0 0 0 0 0 0 0 0 0 0 0 0 0 -0
0 0 0 0 0 0 0 -0 0 0 0 0 0 0 0 0 0 0 0 0 0 0 0 0 0 0 0 0 0 0 0 0 0 0 0 0 0 0 0 0 -0 -0 -0
0 0 0 0 0 0 -0 -0 0 0 0 0 0 0 0 0 0 0 0 0 0 0 0 0 0 0 0 0 0 0 0 0 0 0 0 0 0 0 0 0 0 -0 0
0 0 0 0 0 0 0 0 0 0 0 0 0 0 0 0 0 0 0 0 0 0 0 0 0 0 0 0 0 0 0 0 0 0 0 0 0 0 0 0 0 0 0
Wind_Speed_500mb
54 57 54 50 44 39 34 28 23 20 19 18 18 20 22 23 21 31 31 27 18 12 8 15 13 18 20 22 19 21 24 26 29 30 31 31 32 33 34 36 36 35 37
55 57 56 52 46 41 36 29 23 22 22 21 21 22 23 24 25 29 28 29 22 17 21 21 20 19 17 20 16 15 19 24 24 26 27 28 30 33 34 35 36 35 37
55 58 58 55 50 43 35 33 26 24 22 24 24 24 25 27 26 28 28 27 26 24 24 17 21 19 15 18 19 21 21 23 25 26 29 31 33 34 35 36 35 37 38
57 57 60 58 52 48 45 36 33 28 25 25 26 27 28 28 25 25 25 23 20 19 22 21 18 8 17 17 18 20 22 24 26 29 31 31 31 33 34 35 38 38 39
59 57 62 59 56 53 46 47 38 33 30 29 29 28 26 24 22 21 20 18 16 14 13 10 9 8 5 14 16 17 21 23 26 28 30 32 34 33 34 35 37 39 40
64 59 64 61 62 55 51 51 44 41 35 33 34 30 25 22 20 19 17 16 14 12 9 6 6 8 12 11 10 15 19 21 25 28 29 31 32 35 34 37 40 41 42
73 67 65 64 65 61 51 51 57 46 45 40 40 30 25 21 19 17 14 13 11 6 2 4 8 10 13 13 14 16 18 21 26 28 29 31 33 33 34 39 42 44 43
67 73 65 68 66 70 63 57 62 55 49 48 47 37 24 20 22 20 19 14 7 1 6 9 15 15 14 16 18 20 23 29 29 29 31 31 32 34 38 44 46 45 45
64 65 65 68 66 68 65 71 58 62 59 56 52 33 19 19 36 27 24 23 19 20 19 15 14 16 16 18 20 25 33 40 40 38 34 33 33 37 42 46 47 46 46
65 67 70 64 67 62 62 75 68 68 63 61 56 50 32 16 23 21 31 29 27 15 12 18 22 20 20 22 27 33 39 44 45 47 44 35 37 41 44 46 44 49 49
74 69 68 67 67 62 70 68 68 64 61 55 56 47 35 19 18 17 26 30 22 17 24 28 26 25 25 26 30 35 43 46 50 52 52 49 42 44 45 45 48 48 48
70 68 68 64 63 61 61 57 61 56 56 52 52 36 31 24 19 23 25 21 19 27 34 32 31 29 28 30 36 42 48 52 55 58 58 60 53 47 45 46 48 47 43
77 84 74 75 76 73 62 66 62 58 56 54 51 46 37 35 31 26 22 21 27 35 32 33 32 31 32 36 42 47 52 55 58 61 62 62 56 47 45 46 46 44 44
88 91 87 83 70 63 64 60 58 52 47 43 41 40 35 32 26 21 26 29 19 20 22 28 25 31 34 38 43 51 56 60 60 61 62 63 58 46 46 45 44 45 45
98 92 91 87 76 68 58 53 47 44 35 35 35 36 36 30 24 25 22 21 19 12 13 18 21 27 32 39 49 54 58 60 62 62 63 64 60 51 49 46 43 44 43
101 95 90 79 75 65 58 49 46 42 35 43 45 41 32 29 25 21 17 16 14 13 12 17 21 28 35 43 51 55 57 60 63 64 63 62 61 51 46 41 42 44 44
98 88 81 73 67 58 48 44 43 47 53 52 41 37 34 28 23 18 14 9 10 13 14 18 22 29 36 45 49 53 58 61 63 61 62 62 58 56 43 41 46 46 45
71 73 73 70 60 48 47 50 58 58 49 46 43 34 29 25 19 13 7 8 10 14 17 21 25 30 37 45 51 59 60 60 60 63 63 65 62 52 40 44 52 50 47
71 67 59 57 56 59 61 62 57 52 45 40 36 31 24 17 12 7 5 12 16 20 22 26 31 35 43 49 57 61 67 73 72 64 65 53 53 50 58 59 57 50 47
65 63 60 63 65 68 65 56 51 48 42 37 31 25 19 14 5 6 11 14 19 23 25 28 33 39 45 53 61 69 74 76 81 79 65 51 59 59 62 59 53 45 43
71 71 75 75 72 64 54 50 45 41 36 32 27 20 12 3 6 10 14 18 21 24 27 32 38 47 53 56 60 69 77 82 85 72 76 82 80 74 68 61 50 43 47
86 82 81 74 67 59 49 41 36 35 30 24 17 11 4 5 8 16 17 22 26 30 34 39 44 48 50 55 61 68 76 82 81 76 87 91 82 79 68 63 65 62 52
90 82 74 63 58 53 45 38 32 27 22 17 11 6 3 6 11 13 18 20 22 27 33 40 42 44 52 55 64 71 74 74 76 79 85 100 87 82 78 74 71 59 38
82 75 64 56 52 48 38 32 28 23 19 14 8 1 5 10 12 16 18 22 28 31 35 38 41 44 48 54 60 66 71 76 79 75 74 96 89 94 94 88 68 53 48
71 63 55 48 42 40 33 28 22 18 12 6 5 4 8 11 18 26 24 24 29 36 35 35 38 42 48 52 55 65 66 73 85 85 80 79 93 103 106 85 69 55 46
62 55 50 40 36 35 30 22 15 9 8 6 6 5 7 12 19 23 25 29 33 39 42 44 45 47 49 54 56 59 64 68 68 85 75 84 91 86 101 89 77 96 93
Wind_Direction_500mb
199 197 195 197 198 195 195 194 191 195 200 200 193 194 197 201 191 177 182 184 162 134 103 106 94 83 74 66 58 50 44 44 39 32 28 23 21 17 16 14 10 8 6
206 203 200 200 203 199 198 199 198 198 204 205 201 199 203 203 193 190 203 209 205 196 142 117 104 92 78 71 65 56 47 43 39 31 28 20 19 17 15 13 8 6 359
210 207 205 203 205 200 209 204 204 204 207 205 206 203 203 205 205 199 211 225 229 215 191 127 86 91 77 67 53 52 50 37 30 24 21 17 12 13 12 7 6 3 359
213 210 208 206 203 209 211 214 216 211 215 209 208 205 205 209 217 218 221 224 222 231 246 253 271 73 70 65 55 46 37 33 24 18 16 10 14 11 8 4 3 358 351
214 217 214 208 204 208 215 219 217 217 221 208 203 203 203 207 209 213 217 221 224 235 253 266 264 288 304 52 55 42 34 25 17 15 11 10 5 5 1 3 357 353 351
218 217 211 211 208 207 220 215 219 210 216 215 199 194 197 204 208 213 217 222 230 237 246 259 281 303 309 329 342 33 30 16 11 8 7 3 1 0 358 355 352 347 344
223 215 212 213 213 216 222 213 216 215 207 210 206 183 187 196 201 200 200 203 200 199 233 307 313 313 309 309 322 334 342 12 8 7 0 358 356 354 351 347 344 340 337
220 211 214 215 217 218 226 225 215 211 215 207 207 196 179 192 197 187 180 162 146 113 298 306 301 300 311 320 321 325 333 340 348 357 353 351 347 346 341 336 335 332 331
215 220 215 217 219 221 223 221 227 229 216 206 210 208 182 197 194 193 189 198 193 214 235 271 287 299 304 307 322 331 334 338 335 338 351 347 343 337 334 331 330 327 328
216 213 216 217 221 224 228 223 220 225 224 221 210 213 214 212 180 186 206 211 220 218 256 269 275 287 299 313 324 327 333 337 334 331 330 341 336 332 330 329 325 323 323
209 213 215 218 222 230 227 225 216 220 218 218 211 210 210 191 188 177 189 204 218 232 244 256 270 283 298 307 317 323 332 334 328 325 322 325 331 328 326 327 321 320 318
212 211 215 217 223 221 232 226 226 226 227 217 215 208 208 173 206 180 158 183 223 235 240 253 268 282 296 307 313 320 326 326 322 320 320 322 324 326 325 321 319 319 315
212 211 214 220 219 216 226 222 221 216 215 209 213 216 226 248 193 181 175 192 224 234 240 253 267 281 295 303 310 316 317 317 318 319 319 319 321 322 320 318 316 313 313
212 209 212 209 213 219 223 214 215 205 206 203 209 217 230 176 170 175 207 219 214 232 248 253 275 287 294 301 305 313 315 314 314 318 317 318 316 319 316 315 313 310 311
212 208 206 199 209 202 210 200 192 190 181 193 214 172 156 153 183 203 203 201 215 223 246 261 268 286 291 298 306 308 308 311 315 318 317 316 316 315 314 310 306 307 308
202 198 196 195 199 194 193 190 183 186 188 169 156 148 158 174 174 175 177 194 220 246 250 265 277 285 296 300 300 303 308 314 318 319 319 320 318 312 307 303 305 305 303
192 188 185 187 181 177 173 176 176 165 157 150 150 165 164 162 168 171 176 206 252 270 273 277 289 294 295 296 301 306 313 318 322 325 324 322 319 312 301 297 305 302 300
181 177 170 171 164 158 160 165 157 150 144 154 160 160 165 162 169 172 202 257 293 305 304 300 297 300 301 306 311 316 319 322 327 330 328 325 318 311 299 295 303 298 296
171 163 158 152 153 154 154 151 146 146 153 156 159 159 158 160 176 204 293 326 317 308 313 316 311 313 317 317 318 322 327 328 329 331 325 326 317 313 306 302 301 298 293
156 150 151 150 152 149 146 141 152 152 154 156 154 152 162 175 205 331 319 315 321 317 314 317 321 320 320 326 328 327 324 328 330 334 331 333 327 321 313 312 305 299 295
150 149 148 148 148 141 142 152 153 153 154 153 156 161 163 161 298 292 325 323 312 314 328 329 326 331 330 327 327 329 327 329 330 335 333 331 330 328 322 317 311 304 302
148 149 146 145 136 144 146 148 148 148 152 152 151 153 170 262 304 328 321 325 333 333 337 335 331 326 327 329 327 325 328 330 328 334 326 324 329 328 324 321 319 318 319
146 146 137 138 142 141 144 145 148 150 151 150 153 176 257 318 318 318 326 334 333 331 333 328 325 330 329 327 327 325 325 322 320 328 326 319 329 324 324 324 323 322 323
141 131 139 144 142 138 142 146 153 158 156 158 159 211 294 299 314 331 333 340 334 334 333 333 335 331 326 325 321 319 322 321 319 324 326 318 326 323 324 325 328 328 329
129 139 140 140 138 139 147 154 158 158 154 167 196 257 287 325 334 334 338 332 332 332 336 336 332 329 325 325 324 320 324 322 322 326 328 321 321 322 323 325 329 330 318
137 136 134 136 145 149 152 151 152 163 191 201 245 277 338 328 333 325 331 332 330 333 336 336 335 335 330 330 328 324 323 321 321 319 325 319 316 325 324 322 320 317 318
Wind_Speed_850mb
54 57 54 50 44 39 34 28 23 20 19 18 18 20 22 23 21 31 31 27 18 12 8 15 13 18 20 22 19 21 24 26 29 30 31 31 32 33 34 36 36 35 37
55 57 56 52 46 41 36 29 23 22 22 21 21 22 23 24 25 29 28 29 22 17 21 21 20 19 17 20 16 15 19 24 24 26 27 28 30 33 34 35 36 35 37
55 58 58 55 50 43 35 33 26 24 22 24 24 24 25 27 26 28 28 27 26 24 24 17 21 19 15 18 19 21 21 23 25 26 29 31 33 34 35 36 35 37 38
57 57 60 58 52 48 45 36 33 28 25 25 26 27 28 28 25 25 25 23 20 19 22 21 18 8 17 17 18 20 22 24 26 29 31 31 31 33 34 35 38 38 39
59 57 62 59 56 53 46 47 38 33 30 29 29 28 26 24 22 21 20 18 16 14 13 10 9 8 5 14 16 17 21 23 26 28 30 32 34 33 34 35 37 39 40
64 59 64 61 62 55 51 51 44 41 35 33 34 30 25 22 20 19 17 16 14 12 9 6 6 8 12 11 10 15 19 21 25 28 29 31 32 35 34 37 40 41 42
73 67 65 64 65 61 51 51 57 46 45 40 40 30 25 21 19 17 14 13 11 6 2 4 8 10 13 13 14 16 18 21 26 28 29 31 33 33 34 39 42 44 43
67 73 65 68 66 70 63 57 62 55 49 48 47 37 24 20 22 20 19 14 7 1 6 9 15 15 14 16 18 20 23 29 29 29 31 31 32 34 38 44 46 45 45
64 65 65 68 66 68 65 71 58 62 59 56 52 33 19 19 36 27 24 23 19 20 19 15 14 16 16 18 20 25 33 40 40 38 34 33 33 37 42 46 47 46 46
65 67 70 64 67 62 62 75 68 68 63 61 56 50 32 16 23 21 31 29 27 15 12 18 22 20 20 22 27 33 39 44 45 47 44 35 37 41 44 46 44 49 49
74 69 68 67 67 62 70 68 68 64 61 55 56 47 35 19 18 17 26 30 22 17 24 28 26 25 25 26 30 35 43 46 50 52 52 49 42 44 45 45 48 48 48
70 68 68 64 63 61 61 57 61 56 56 52 52 36 31 24 19 23 25 21 19 27 34 32 31 29 28 30 36 42 48 52 55 58 58 60 53 47 45 46 48 47 43
77 84 74 75 76 73 62 66 62 58 56 54 51 46 37 35 31 26 22 21 27 35 32 33 32 31 32 36 42 47 52 55 58 61 62 62 56 47 45 46 46 44 44
88 91 87 83 70 63 64 60 58 52 47 43 41 40 35 32 26 21 26 29 19 20 22 28 25 31 34 38 43 51 56 60 60 61 62 63 58 46 46 45 44 45 45
98 92 91 87 76 68 58 53 47 44 35 35 35 36 36 30 24 25 22 21 19 12 13 18 21 27 32 39 49 54 58 60 62 62 63 64 60 51 49 46 43 44 43
101 95 90 79 75 65 58 49 46 42 35 43 45 41 32 29 25 21 17 16 14 13 12 17 21 28 35 43 51 55 57 60 63 64 63 62 61 51 46 41 42 44 44
98 88 81 73 67 58 48 44 43 47 53 52 41 37 34 28 23 18 14 9 10 13 14 18 22 29 36 45 49 53 58 61 63 61 62 62 58 56 43 41 46 46 45
71 73 73 70 60 48 47 50 58 58 49 46 43 34 29 25 19 13 7 8 10 14 17 21 25 30 37 45 51 59 60 60 60 63 63 65 62 52 40 44 52 50 47
71 67 59 57 56 59 61 62 57 52 45 40 36 31 24 17 12 7 5 12 16 20 22 26 31 35 43 49 57 61 67 73 72 64 65 53 53 50 58 59 57 50 47
65 63 60 63 65 68 65 56 51 48 42 37 31 25 19 14 5 6 11 14 19 23 25 28 33 39 45 53 61 69 74 76 81 79 65 51 59 59 62 59 53 45 43
71 71 75 75 72 64 54 50 45 41 36 32 27 20 12 3 6 10 14 18 21 24 27 32 38 47 53 56 60 69 77 82 85 72 76 82 80 74 68 61 50 43 47
86 82 81 74 67 59 49 41 36 35 30 24 17 11 4 5 8 16 17 22 26 30 34 39 44 48 50 55 61 68 76 82 81 76 87 91 82 79 68 63 65 62 52
90 82 74 63 58 53 45 38 32 27 22 17 11 6 3 6 11 13 18 20 22 27 33 40 42 44 52 55 64 71 74 74 76 79 85 100 87 82 78 74 71 59 38
82 75 64 56 52 48 38 32 28 23 19 14 8 1 5 10 12 16 18 22 28 31 35 38 41 44 48 54 60 66 71 76 79 75 74 96 89 94 94 88 68 53 48
71 63 55 48 42 40 33 28 22 18 12 6 5 4 8 11 18 26 24 24 29 36 35 35 38 42 48 52 55 65 66 73 85 85 80 79 93 103 106 85 69 55 46
62 55 50 40 36 35 30 22 15 9 8 6 6 5 7 12 19 23 25 29 33 39 42 44 45 47 49 54 56 59 64 68 68 85 75 84 91 86 101 89 77 96 93
Wind_Direction_850mb
199 197 195 197 198 195 195 194 191 195 200 200 193 194 197 201 191 177 182 184 162 134 103 106 94 83 74 66 58 50 44 44 39 32 28 23 21 17 16 14 10 8 6
206 203 200 200 203 199 198 199 198 198 204 205 201 199 203 203 193 190 203 209 205 196 142 117 104 92 78 71 65 56 47 43 39 31 28 20 19 17 15 13 8 6 359
210 207 205 203 205 200 209 204 204 204 207 205 206 203 203 205 205 199 211 225 229 215 191 127 86 91 77 67 53 52 50 37 30 24 21 17 12 13 12 7 6 3 359
213 210 208 206 203 209 211 214 216 211 215 209 208 205 205 209 217 218 221 224 222 231 246 253 271 73 70 65 55 46 37 33 24 18 16 10 14 11 8 4 3 358 351
214 217 214 208 204 208 215 219 217 217 221 208 203 203 203 207 209 213 217 221 224 235 253 266 264 288 304 52 55 42 34 25 17 15 11 10 5 5 1 3 357 353 351
218 217 211 211 208 207 220 215 219 210 216 215 199 194 197 204 208 213 217 222 230 237 246 259 281 303 309 329 342 33 30 16 11 8 7 3 1 0 358 355 352 347 344
223 215 212 213 213 216 222 213 216 215 207 210 206 183 187 196 201 200 200 203 200 199 233 307 313 313 309 309 322 334 342 12 8 7 0 358 356 354 351 347 344 340 337
220 211 214 215 217 218 226 225 215 211 215 207 207 196 179 192 197 187 180 162 146 113 298 306 301 300 311 320 321 325 333 340 348 357 353 351 347 346 341 336 335 332 331
215 220 215 217 219 221 223 221 227 229 216 206 210 208 182 197 194 193 189 198 193 214 235 271 287 299 304 307 322 331 334 338 335 338 351 347 343 337 334 331 330 327 328
216 213 216 217 221 224 228 223 220 225 224 221 210 213 214 212 180 186 206 211 220 218 256 269 275 287 299 313 324 327 333 337 334 331 330 341 336 332 330 329 325 323 323
209 213 215 218 222 230 227 225 216 220 218 218 211 210 210 191 188 177 189 204 218 232 244 256 270 283 298 307 317 323 332 334 328 325 322 325 331 328 326 327 321 320 318
212 211 215 217 223 221 232 226 226 226 227 217 215 208 208 173 206 180 158 183 223 235 240 253 268 282 296 307 313 320 326 326 322 320 320 322 324 326 325 321 319 319 315
212 211 214 220 219 216 226 222 221 216 215 209 213 216 226 248 193 181 175 192 224 234 240 253 267 281 295 303 310 316 317 317 318 319 319 319 321 322 320 318 316 313 313
212 209 212 209 213 219 223 214 215 205 206 203 209 217 230 176 170 175 207 219 214 232 248 253 275 287 294 301 305 313 315 314 314 318 317 318 316 319 316 315 313 310 311
212 208 206 199 209 202 210 200 192 190 181 193 214 172 156 153 183 203 203 201 215 223 246 261 268 286 291 298 306 308 308 311 315 318 317 316 316 315 314 310 306 307 308
202 198 196 195 199 194 193 190 183 186 188 169 156 148 158 174 174 175 177 194 220 246 250 265 277 285 296 300 300 303 308 314 318 319 319 320 318 312 307 303 305 305 303
192 188 185 187 181 177 173 176 176 165 157 150 150 165 164 162 168 171 176 206 252 270 273 277 289 294 295 296 301 306 313 318 322 325 324 322 319 312 301 297 305 302 300
181 177 170 171 164 158 160 165 157 150 144 154 160 160 165 162 169 172 202 257 293 305 304 300 297 300 301 306 311 316 319 322 327 330 328 325 318 311 299 295 303 298 296
171 163 158 152 153 154 154 151 146 146 153 156 159 159 158 160 176 204 293 326 317 308 313 316 311 313 317 317 318 322 327 328 329 331 325 326 317 313 306 302 301 298 293
156 150 151 150 152 149 146 141 152 152 154 156 154 152 162 175 205 331 319 315 321 317 314 317 321 320 320 326 328 327 324 328 330 334 331 333 327 321 313 312 305 299 295
150 149 148 148 148 141 142 152 153 153 154 153 156 161 163 161 298 292 325 323 312 314 328 329 326 331 330 327 327 329 327 329 330 335 333 331 330 328 322 317 311 304 302
148 149 146 145 136 144 146 148 148 148 152 152 151 153 170 262 304 328 321 325 333 333 337 335 331 326 327 329 327 325 328 330 328 334 326 324 329 328 324 321 319 318 319
146 146 137 138 142 141 144 145 148 150 151 150 153 176 257 318 318 318 326 334 333 331 333 328 325 330 329 327 327 325 325 322 320 328 326 319 329 324 324 324 323 322 323
141 131 139 144 142 138 142 146 153 158 156 158 159 211 294 299 314 331 333 340 334 334 333 333 335 331 326 325 321 319 322 321 319 324 326 318 326 323 324 325 328 328 329
129 139 140 140 138 139 147 154 158 158 154 167 196 257 287 325 334 334 338 332 332 332 336 336 332 329 325 325 324 320 324 322 322 326 328 321 321 322 323 325 329 330 318
137 136 134 136 145 149 152 151 152 163 191 201 245 277 338 328 333 325 331 332 330 333 336 336 335 335 330 330 328 324 323 321 321 319 325 319 316 325 324 322 320 317 318